Powrót do katalogu

FENGYUN 1C DEB

AktywnySSO
NORAD 29856·DEBRIS·🇨🇳 China

Wystrzelony May 10, 1999 z Taiyuan Satellite Launch Center

Loading…

Następne Przeloty (najbliższe 24 godziny)

TLE

ŚwieżeSource: Space-Track

Epoka: Sep 14, 2026, 14:24 UTC

1 29856U 99025FA  26257.60024124  .00017086  00000-0  26307-2 0  9998
2 29856  98.6914   6.6838 0237233 177.8846 311.1826 14.56315819  3807

Śledź FENGYUN 1C DEB w czasie rzeczywistym z AllMySat

Download on the App Store